TimeCDT,TemperatureF,Dew PointF,Humidity,Sea Level PressureIn,VisibilityMPH,Wind Direction,Wind SpeedMPH,Gust SpeedMPH,PrecipitationIn,Events,Conditions,WindDirDegrees,DateUTC
12:58 AM,62.6,48.6,60,29.92,10.0,West,6.9,-,N/A,,Clear,260,2013-05-05 05:58:00
1:58 AM,61.7,48.7,62,29.91,10.0,West,9.2,-,N/A,,Clear,260,2013-05-05 06:58:00
2:58 AM,63.1,51.1,65,29.89,10.0,WSW,15.0,19.6,N/A,,Scattered Clouds,250,2013-05-05 07:58:00
3:58 AM,64.4,53.2,67,29.87,10.0,WSW,11.5,18.4,N/A,,Partly Cloudy,240,2013-05-05 08:58:00
4:58 AM,64.2,55.8,74,29.87,10.0,WSW,9.2,20.7,N/A,,Partly Cloudy,240,2013-05-05 09:58:00
5:13 AM,64.4,55.4,73,29.86,10.0,WSW,10.4,-,N/A,,Mostly Cloudy,250,2013-05-05 10:13:00
5:18 AM,64.4,57.2,77,29.86,10.0,West,10.4,-,N/A,,Mostly Cloudy,260,2013-05-05 10:18:00
5:58 AM,62.6,55.4,77,29.88,10.0,West,6.9,19.6,N/A,,Scattered Clouds,270,2013-05-05 10:58:00
6:58 AM,61.9,55.8,80,29.90,10.0,WNW,9.2,18.4,N/A,,Scattered Clouds,300,2013-05-05 11:58:00
7:58 AM,62.2,48.4,60,29.91,10.0,NW,9.2,-,N/A,,Clear,310,2013-05-05 12:58:00
8:58 AM,64.9,46.2,51,29.91,10.0,West,9.2,-,N/A,,Clear,280,2013-05-05 13:58:00
9:58 AM,65.5,46.2,50,29.92,10.0,NW,12.7,19.6,N/A,,Clear,310,2013-05-05 14:58:00
10:58 AM,63.9,46.8,54,29.93,10.0,NW,16.1,24.2,N/A,,Clear,320,2013-05-05 15:58:00
11:58 AM,64.9,44.2,47,29.93,10.0,NW,13.8,19.6,N/A,,Clear,310,2013-05-05 16:58:00
12:58 PM,65.8,43.5,44,29.94,10.0,West,10.4,20.7,N/A,,Clear,280,2013-05-05 17:58:00
1:58 PM,66.0,44.1,45,29.93,10.0,NW,12.7,23.0,N/A,,Partly Cloudy,320,2013-05-05 18:58:00
2:07 PM,64.4,42.8,45,29.92,10.0,North,15.0,23.0,N/A,,Scattered Clouds,350,2013-05-05 19:07:00
2:58 PM,65.8,42.8,43,29.92,10.0,NW,13.8,20.7,N/A,,Partly Cloudy,320,2013-05-05 19:58:00
3:36 PM,64.4,41.0,42,29.91,10.0,North,13.8,-,N/A,,Partly Cloudy,350,2013-05-05 20:36:00
3:58 PM,65.3,41.9,42,29.92,10.0,NNW,15.0,19.6,N/A,,Partly Cloudy,330,2013-05-05 20:58:00
4:58 PM,65.1,40.8,41,29.93,10.0,NNW,12.7,-,N/A,,Partly Cloudy,340,2013-05-05 21:58:00
5:58 PM,63.7,40.5,43,29.94,10.0,NNW,11.5,19.6,N/A,,Clear,340,2013-05-05 22:58:00
6:58 PM,61.5,40.1,45,29.96,10.0,NNW,11.5,-,N/A,,Clear,330,2013-05-05 23:58:00
7:58 PM,59.0,42.1,53,29.99,10.0,NNW,9.2,-,N/A,,Clear,330,2013-05-06 00:58:00
8:58 PM,57.0,43.0,59,30.00,10.0,NNW,6.9,-,N/A,,Clear,340,2013-05-06 01:58:00
9:58 PM,55.6,43.9,65,30.03,10.0,NW,8.1,-,N/A,,Clear,320,2013-05-06 02:58:00
10:58 PM,54.7,44.1,67,30.04,10.0,NW,5.8,-,N/A,,Clear,320,2013-05-06 03:58:00
11:58 PM,54.0,45.0,72,30.04,10.0,NW,5.8,-,N/A,,Clear,310,2013-05-06 04:58:00